114  
NZUS01 KOTX 200310  
RWROTX  
 
EASTERN WASHINGTON/NORTHERN IDAHO ROUNDUP  
NATIONAL WEATHER SERVICE, SPOKANE WA  
700 PM PST FRI JAN 19 2018  
 
NOTE: "FAIR" INDICATED FEW OR NO CLOUDS BELOW 12,000 FEET WITH NO  
SIGNIFICANT WEATHER AND/OR S TO VISIBILITY
.  
   
..NORTHEAST WASHINGTON AND NORTHERN IDAHO PANHANDLE
 
 
 
CITY SKY/WX TMP DP RH WIND PRES REMARKS
 
SPOKANE INTL MOCLDY 35 31 85 S9 29.90S WCI 28  
SPOKANE DOWNTO PTCLDY 33 30 88 NE3 29.93R  
COEUR D ALENE CLOUDY 36 32 85 SE6 29.92S  
DEER PARK CLOUDY 33 31 92 CALM 29.91S  
SANDPOINT CLOUDY 34 32 93 CALM 29.92R  
BONNERS FERRY CLOUDY 34 28 80 SW5 29.89R WCI 30  
   
..SOUTHEAST WASHINGTON AND SOUTHERN IDAHO PANHANDLE
 
 
 
CITY SKY/WX TMP DP RH WIND PRES REMARKS
 
WALLA WALLA PTCLDY 42 31 64 S9 29.96S  
PULLMAN/MOSCOW CLOUDY 35 30 82 SE3 29.95S  
LEWISTON PTCLDY 38 36 92 CALM 29.97R  
LOWELL N/A 36 36 100 CALM 30.01S  
GRANGEVILLE MOCLDY 30 28 93 S6 29.94S WCI 24  
   
..COLUMBIA BASIN
 
 
 
CITY SKY/WX TMP DP RH WIND PRES REMARKS
 
EPHRATA CLOUDY 37 30 75 CALM 29.89S  
MOSES LAKE MOCLDY 39 32 76 S8 29.91R  
PASCO PTCLDY 43 33 68 S9 29.97S  
RICHLAND PTCLDY 45 34 66 S7 29.97S  
HERMISTON PTCLDY 42 34 73 W5 29.97S  
PENDLETON PTCLDY 37 29 72 S7 29.96R  
   
..EAST SLOPES CASCADES
 
 
 
CITY SKY/WX TMP DP RH WIND PRES REMARKS
 
THE DALLES CLEAR 39 35 86 CALM 30.00R  
YAKIMA MOCLDY 44 32 62 NE8 29.91R  
ELLENSBURG MOCLDY 33 30 88 NW3 29.88S  
STAMPEDE PASS LGT SNOW 30 29 96 CALM 29.82S FOG  
WENATCHEE MOCLDY 31 30 96 CALM 29.89S  
OMAK CLOUDY 34 32 92 SE5 29.89F WCI 30  
SUNNYSIDE PTCLDY 33 30 89 NE5 29.94S WCI 29  
   
..SOUTHERN BRITISH COLUMBIA
 
 
 
CITY SKY/WX TMP DP RH WIND PRES REMARKS
 
PENTICTON MOCLDY 37 30 75 S14 29.85S  
CRANBROOK MOCLDY 34 23 64 S15 29.80R WCI 24  
OSOYOOS N/A 37 30 75 SE5 N/A  
CRESTON N/A 37 28 70 E3 N/A  
   
..WESTERN MONTANA
 
 
 
CITY SKY/WX TMP DP RH WIND PRES REMARKS
 
KALISPELL CLOUDY 33 29 85 S6 29.86R WCI 28  
MISSOULA MOCLDY 34 23 64 S7 29.90R WCI 28  
   
..NEIGHBORING CITIES
 
 
 
CITY SKY/WX TMP DP RH WIND PRES REMARKS
 
SEATTLE CLOUDY 45 37 73 S16 29.89S  
PORTLAND LGT RAIN 46 39 76 S12G20 30.01S  
BOISE MOCLDY 36 26 67 NW6 29.98R  
GREAT FALLS CLEAR 28 18 66 SW14 29.75R WCI 17  
CALGARY PTCLDY 34 12 40 W15G22 29.59S WCI 24  
 
CLICK HERE TO GO TO PREVIOUS BULLETINS.

The Nexlab WA Page
The Nexlab ID Page Main Text Page